[[{"header":{"parameterUnit":"m.s-1","parameterCategory":1,"la1":30.2991,"la2":30.254,"lo1":-89.0895,"lo2":-89.0444,"dy":0.0017,"dx":0.0017,"nx":28,"ny":28,"refTime":"2026-02-06T09:00:00:Z","depth":0,"parameterNumber":2,"parameterNumberName":"U-component_of_WINDS"},"data":[0,0,0,0,0,0,0,0,0,0,0,0,0,0,0,0,0,0,0,0,0,0,0,0,0,0,0,0,0,0,0,0,0,0,0,0,0,0,0,0,0,0,0,0,0,0,0,0,0,0,0,0,0,0,0,0,0,0,6.0332,6.0333,0,6.0451,6.0453,6.0454,6.0371,6.0367,6.0364,6.036,6.0487,6.0494,6.0501,0,0,0,0,0,0,0,0,0,0,0,0,0,6.0035,6.0041,6.0331,6.0333,6.0334,6.0451,6.0453,6.0455,6.0372,6.0367,6.0363,6.0358,6.0485,6.0493,6.0501,0,0,0,0,0,0,0,0,0,0,0,0,0,6.016,6.0043,6.0331,6.0307,6.0306,6.0451,6.0453,6.0455,6.0373,6.0367,6.0361,6.0356,6.0482,6.0492,6.0502,6.0679,0,0,6.0534,6.0538,0,0,0,0,0,0,0,0,6.0153,6.0171,6.0309,6.0309,6.0308,6.039,6.0395,6.053,6.0374,6.0348,6.036,6.0353,6.046,6.0472,6.0507,6.0685,6.069,6.0535,6.0541,6.0546,6.0548,0,0,0,0,0,0,0,6.0145,6.0166,6.0379,6.0311,6.0311,6.0292,6.0303,6.042,6.0434,6.035,6.0344,6.0359,6.0459,6.0497,6.0509,6.0692,6.0535,6.0544,6.055,6.0554,6.1021,6.1027,0,0,0,0,0,0,6.0138,6.0159,6.0375,6.0383,6.0215,6.0302,6.0315,6.037,6.0432,6.0436,6.0364,6.0355,6.0482,6.0497,6.0513,6.0723,6.0545,6.0555,6.0561,6.1015,6.1022,6.1029,0,0,0,0,0,0,6.0132,6.0158,6.037,6.0269,6.0295,6.0313,6.0375,6.0375,6.0413,6.0443,6.0445,6.04,6.0478,6.0499,6.0638,6.0727,6.056,6.0569,6.1008,6.1017,6.1026,6.1146,0,0,0,0,0,0,6.0123,6.0156,6.0222,6.0271,6.0301,6.0492,6.0381,6.0382,6.0431,6.042,6.0478,6.0482,6.0475,6.0623,6.0648,6.0738,6.0577,6.1,6.1012,6.1023,6.1134,6.1158,6.1179,0,0,0,0,0,6.0113,6.0252,6.0226,6.0252,6.0383,6.0497,6.0514,6.0503,6.0438,6.0506,6.0525,6.048,6.0713,6.0638,6.0666,6.076,6.0994,6.1008,6.1022,6.1124,6.1153,6.1178,0,0,0,0,0,0,6.0214,6.0258,6.0229,6.0388,6.044,6.0483,6.0567,6.0534,6.0606,6.0593,6.0577,6.0591,6.0737,6.0762,6.0678,6.0934,6.0844,6.0864,6.0912,6.094,6.0962,6.0952,6.0586,0,0,0,0,0,6.0254,6.0342,6.0376,6.0513,6.054,6.055,6.0599,6.0586,6.0639,6.066,6.069,6.0744,6.0829,6.0886,6.0966,6.1138,6.1149,6.1216,6.1238,6.1257,6.1274,6.1367,6.1397,6.1075,6.1075,6.1075,0,0,6.0339,6.0374,6.0431,6.0534,6.0572,6.0665,6.0569,6.067,6.0739,6.0676,6.0809,6.0833,6.0893,6.1049,6.1119,6.1074,6.1366,6.1275,6.1289,6.1297,6.1384,6.1415,6.1442,6.1085,6.1083,6.1081,0,0,6.0541,6.0576,6.0694,6.0734,6.0793,6.0798,6.0827,6.0876,6.0889,6.1021,6.0976,6.1059,6.1206,6.125,6.1292,6.1512,6.1474,6.1539,6.1655,6.1746,6.1771,6.1794,6.1872,6.19,6.1556,6.1557,6.1557,0,6.0639,6.0775,6.0759,6.0864,6.0911,6.0858,6.0978,6.1018,6.1101,6.1135,6.1084,6.1268,6.1304,6.147,6.1523,6.1559,6.1592,6.1532,6.1769,6.1791,6.1812,6.1886,6.1916,6.1564,6.1563,6.1562,6.1562,0,6.0894,6.0989,6.1077,6.1157,6.1214,6.1326,6.1328,6.1388,6.137,6.1382,6.1518,6.156,6.1648,6.1687,6.1671,6.1851,6.1821,6.177,6.1679,6.185,6.192,6.1948,6.1575,6.1572,6.157,6.1568,0,0,6.1161,6.1231,6.1263,6.1299,6.136,6.1434,6.1545,6.1629,6.1681,6.1741,6.1833,6.1959,6.1912,6.196,6.1948,6.2028,6.2199,6.1967,6.1968,6.2008,6.24,6.2438,6.2471,6.2174,6.218,6.2184,6.2395,0,6.1366,6.1556,6.1545,6.1725,6.1813,6.1764,6.186,6.1909,6.1923,6.2,6.2016,6.2106,6.2037,6.2065,6.2142,6.2162,6.2278,6.2147,6.2261,6.2265,6.2247,6.2507,6.2548,6.2745,6.2422,6.2427,6.243,0,6.163,6.1697,6.1885,6.1933,6.1969,6.2056,6.2132,6.2207,6.2262,6.2267,6.232,6.2296,6.2409,6.2315,6.2471,6.2382,6.2428,6.2446,6.2453,6.2463,6.2358,6.2524,6.2807,6.2836,6.2473,6.247,6.2466,0,6.1806,6.1944,6.2073,6.2106,6.2165,6.2227,6.2255,6.2304,6.2356,6.2424,6.2457,6.2538,6.2582,6.2646,6.2645,6.2577,6.2803,6.2709,6.281,6.281,6.2859,6.2856,6.3153,6.289,6.289,6.2889,6.2889,0,6.2036,6.2152,6.2153,6.2233,6.2363,6.235,6.248,6.2501,6.2545,6.263,6.2593,6.2673,6.2667,6.2748,6.2748,6.2877,6.2898,6.2905,6.2904,6.2908,6.2907,6.2938,6.2924,6.2897,6.2896,6.2894,6.2893,0,6.2254,6.2259,6.2398,6.2443,6.2457,6.255,6.2589,6.2666,6.2677,6.2784,6.2808,6.2826,6.292,6.2925,6.3034,6.3034,6.319,6.3174,6.3171,6.3168,6.3269,6.3259,6.3596,6.3639,6.3349,6.3351,6.3354,0,6.2399,6.2488,6.2542,6.2595,6.2627,6.2713,6.2765,6.2757,6.2813,6.2882,6.2951,6.3041,6.3112,6.3265,6.3288,6.3371,6.3356,6.3469,6.3369,6.337,6.3358,6.3352,6.3361,6.3488,6.3491,6.3494,6.3496,0,6.2657,6.2656,6.2731,6.2809,6.2872,6.2933,6.299,6.3036,6.3034,6.3099,6.3194,6.325,6.336,6.3451,6.3532,6.3562,6.353,6.3527,6.3555,6.356,6.3554,6.3558,6.3224,6.352,6.3517,6.3515,6.3514,6.3513,6.2843,6.292,6.297,6.3056,6.3097,6.3151,6.3225,6.3245,6.3323,6.3411,6.3402,6.3508,6.3561,6.3666,6.3703,6.3786,6.3748,6.3788,6.3798,6.3808,6.3819,6.3542,6.3801,6.3801,6.38,6.3799,6.3799,0,6.3099,6.3128,6.3208,6.3288,6.3356,6.3318,6.3379,6.3439,6.3532,6.3584,6.3654,6.3764,6.3851,6.3882,6.3967,6.4028,6.4015,6.405,6.4045,6.4053,6.3848,6.3815,6.4059,6.4059,6.4059,6.4059,6.4059,6.4059,6.324,6.3367,6.3371,6.3519,6.3548,6.365,6.3688,6.3738,6.3779,6.3902,6.3974,6.3993,6.4036,6.4125,6.4203,6.421,6.4243,6.4285,6.4285,6.4094,6.4067,6.4042,6.4011,6.4292,6.4293,6.4483,6.4485,6.4486]},{"header":{"parameterUnit":"m.s-1","parameterCategory":1,"la1":30.2991,"la2":30.254,"lo1":-89.0895,"lo2":-89.0444,"dy":0.0017,"dx":0.0017,"nx":28,"ny":28,"refTime":"2026-02-06T09:00:00:Z","depth":0,"parameterNumber":3,"parameterNumberName":"V-component_of_WINDS"},"data":[0,0,0,0,0,0,0,0,0,0,0,0,0,0,0,0,0,0,0,0,0,0,0,0,0,0,0,0,0,0,0,0,0,0,0,0,0,0,0,0,0,0,0,0,0,0,0,0,0,0,0,0,0,0,0,0,0,0,2.0749,2.075,0,2.0817,2.0818,2.0819,2.0811,2.081,2.0808,2.0807,2.0875,2.0878,2.088,0,0,0,0,0,0,0,0,0,0,0,0,0,2.0609,2.0612,2.0749,2.075,2.0751,2.0817,2.0818,2.0819,2.0811,2.081,2.0808,2.0807,2.0874,2.0877,2.0881,0,0,0,0,0,0,0,0,0,0,0,0,0,2.0673,2.0613,2.0749,2.0755,2.0756,2.0817,2.0818,2.0819,2.0811,2.0809,2.0808,2.0806,2.0873,2.0877,2.0881,2.094,0,0,2.0894,2.0896,0,0,0,0,0,0,0,0,2.0669,2.0678,2.0753,2.0755,2.0756,2.0804,2.0793,2.0859,2.0812,2.079,2.0807,2.0806,2.0852,2.0858,2.0874,2.0943,2.0946,2.0894,2.0897,2.0899,2.09,0,0,0,0,0,0,0,2.0665,2.0675,2.0776,2.0754,2.0756,2.0753,2.076,2.0806,2.0829,2.0792,2.0791,2.08,2.0853,2.087,2.0876,2.0947,2.0894,2.0898,2.0901,2.0902,2.1065,2.1067,0,0,0,0,0,0,2.0659,2.0671,2.0774,2.0778,2.0708,2.0757,2.0765,2.079,2.0829,2.0833,2.0801,2.0799,2.0864,2.0871,2.0878,2.0949,2.0899,2.0903,2.0905,2.1063,2.1065,2.1067,0,0,0,0,0,0,2.0656,2.0669,2.0771,2.0725,2.0737,2.0761,2.0789,2.0792,2.081,2.0836,2.084,2.0815,2.0863,2.0872,2.0924,2.0951,2.0905,2.0908,2.1061,2.1064,2.1066,2.1091,0,0,0,0,0,0,2.0652,2.0668,2.0691,2.0725,2.074,2.0817,2.0791,2.0795,2.0817,2.0815,2.085,2.0854,2.0862,2.0918,2.0929,2.0956,2.0912,2.1059,2.1062,2.1066,2.1088,2.1094,2.1099,0,0,0,0,0,2.0647,2.0695,2.0692,2.0705,2.077,2.0819,2.0827,2.0836,2.082,2.0843,2.0859,2.0853,2.0946,2.0924,2.0935,2.0964,2.1057,2.1061,2.1065,2.1085,2.1093,2.1099,0,0,0,0,0,0,2.0663,2.07,2.0697,2.0757,2.0785,2.0817,2.0847,2.0844,2.0877,2.0874,2.0883,2.0891,2.0943,2.0959,2.0933,2.1022,2.0999,2.1006,2.101,2.1018,2.1024,2.1019,2.0915,0,0,0,0,0,2.0673,2.0711,2.074,2.079,2.0805,2.0823,2.0845,2.085,2.0878,2.089,2.091,2.0938,2.0973,2.0996,2.103,2.109,2.1096,2.1115,2.1121,2.1126,2.1131,2.1163,2.1171,2.1081,2.1081,2.1081,0,0,2.0695,2.072,2.0743,2.0794,2.0816,2.0854,2.0833,2.0874,2.0902,2.0896,2.0946,2.0962,2.0993,2.1049,2.1074,2.1063,2.1158,2.1131,2.1134,2.1138,2.1168,2.1176,2.1184,2.1083,2.1083,2.1083,0,0,2.0754,2.0777,2.0821,2.0843,2.0877,2.0889,2.0899,2.0932,2.0942,2.0993,2.0989,2.1021,2.1083,2.1105,2.1124,2.119,2.1185,2.12,2.1231,2.1261,2.1269,2.1275,2.1298,2.1306,2.1206,2.1206,2.1206,0,2.0777,2.0835,2.0844,2.0885,2.0907,2.0904,2.0948,2.0968,2.1011,2.1026,2.1013,2.1089,2.111,2.117,2.1186,2.1202,2.1213,2.1197,2.1267,2.1273,2.128,2.1302,2.131,2.1207,2.1207,2.1207,2.1207,0,2.0861,2.0901,2.0932,2.0974,2.0999,2.1042,2.1056,2.108,2.1082,2.1095,2.1146,2.117,2.1209,2.1223,2.1226,2.1284,2.1276,2.1265,2.1242,2.129,2.131,2.1319,2.121,2.1209,2.1209,2.1208,0,0,2.0933,2.0979,2.099,2.1008,2.1044,2.1075,2.1116,2.1154,2.1175,2.1204,2.1238,2.1289,2.1279,2.1301,2.1305,2.1332,2.1381,2.1317,2.1318,2.1328,2.1446,2.1454,2.1464,2.1378,2.138,2.1381,2.1443,0,2.0996,2.107,2.1079,2.1145,2.1181,2.1177,2.1213,2.1238,2.1251,2.1282,2.1295,2.1331,2.1316,2.1328,2.1355,2.137,2.1405,2.1365,2.1409,2.1411,2.1402,2.1475,2.1484,2.1542,2.1452,2.1453,2.1454,0,2.1079,2.1111,2.1181,2.1211,2.1226,2.1259,2.1294,2.1324,2.1352,2.1359,2.1383,2.1383,2.1424,2.1399,2.1456,2.1429,2.1447,2.1457,2.1459,2.1464,2.1436,2.1482,2.156,2.1569,2.1467,2.1466,2.1465,0,2.1125,2.1185,2.1234,2.125,2.1286,2.1309,2.1325,2.1351,2.1373,2.1403,2.1417,2.1452,2.147,2.1496,2.1505,2.1486,2.1561,2.1537,2.1567,2.1567,2.1584,2.1583,2.1667,2.1595,2.1595,2.1595,2.1595,0,2.1194,2.1237,2.1255,2.1285,2.1332,2.1341,2.1387,2.1401,2.1425,2.1457,2.1455,2.1485,2.1495,2.1526,2.1534,2.1579,2.1587,2.1593,2.1595,2.1594,2.1593,2.1606,2.1602,2.1597,2.1597,2.1596,2.1596,0,2.1253,2.1267,2.132,2.135,2.1359,2.1392,2.1417,2.1445,2.1457,2.1498,2.1507,2.1525,2.1562,2.1573,2.1617,2.1622,2.1675,2.1673,2.1666,2.1666,2.1696,2.1693,2.1791,2.1804,2.1724,2.1725,2.1726,0,2.1297,2.133,2.1363,2.1385,2.1402,2.1437,2.1459,2.1468,2.1491,2.1524,2.1549,2.1585,2.1615,2.1673,2.1689,2.1722,2.1721,2.1753,2.1726,2.1723,2.1721,2.1719,2.1722,2.1758,2.1759,2.176,2.176,0,2.1373,2.1378,2.141,2.1445,2.1472,2.15,2.1527,2.1544,2.1557,2.1582,2.162,2.1643,2.1688,2.1723,2.1757,2.1772,2.1768,2.1769,2.1777,2.1777,2.1772,2.1775,2.168,2.1767,2.1766,2.1766,2.1765,2.1765,2.1425,2.1454,2.1482,2.1518,2.1539,2.1563,2.1591,2.1606,2.1638,2.1676,2.1679,2.1719,2.1744,2.1789,2.1806,2.1837,2.1827,2.184,2.1843,2.1847,2.1849,2.1766,2.1843,2.1843,2.1843,2.1842,2.1842,0,2.1501,2.1518,2.1551,2.1589,2.1617,2.1611,2.164,2.1663,2.1699,2.1724,2.1753,2.1795,2.1829,2.1848,2.1882,2.1903,2.1902,2.1911,2.191,2.1913,2.1855,2.1844,2.1911,2.1911,2.1911,2.1911,2.1911,2.1911,2.1543,2.1591,2.1599,2.1657,2.1673,2.1714,2.173,2.1753,2.1772,2.182,2.1849,2.1861,2.1882,2.1917,2.1948,2.1952,2.1965,2.1975,2.1979,2.1924,2.1917,2.1911,2.19,2.1978,2.1978,2.2034,2.2034,2.2035]}]]